Tracking 25710 objects as of 4-Jul-2022
HD Live streaming from Space Station
objects crossing your sky now

ONEWEB-0126

Track ONEWEB-0126 now!
10-day predictions
ONEWEB-0126 is classified as:


NORAD ID: 47272
Int'l Code: 2020-100Q
Perigee: 1,219.2 km
Apogee: 1,222.5 km
Inclination: 87.9 °
Period: 109.7 minutes
Semi major axis: 7591 km
RCS: Unknown
Launch date: December 18, 2020
Source: United Kingdom (UK)
Launch site: VOSTOCHNY COSMODROME (VOSTO)
aabbcc
Your satellite tracking list
Your tracking list is empty




NASA's NSSDC Master Catalog

Two Line Element Set (TLE):
1 47272U 20100Q   22184.80963486 -.00000092  00000-0 -29067-3 0  9996
2 47272  87.8880 277.6980 0002217 100.8482 259.2896 13.12444018 75244
Source of the keplerian elements: AFSPC